• In Deutschland
  • Länderverzeichnis
  • Für 7 Tage
  • Wassertemperatur
  • Satellitenkarten
  • Wetterkarte
  • Widgets
  • user-avatar
    Anmelden

    Stündliche Wetter Schönebeck

    Heute, 13 Dezember, Mittwoch

    Zeit Temperatur Niederschläge Wind Luftdruck Luftfeuchtigkeit
    00:00 -1°C° 0 mm 4 m/S 755 mmHg 89%
    01:00 -1°C° 0 mm 3 m/S 755 mmHg 91%
    02:00 -1°C° 0 mm 3 m/S 755 mmHg 90%
    03:00 -2°C° 0 mm 4 m/S 755 mmHg 88%
    04:00 -2°C° 0 mm 4 m/S 755 mmHg 87%
    05:00 -2°C° 0 mm 4 m/S 755 mmHg 86%
    06:00 -2°C° 0 mm 4 m/S 754 mmHg 84%
    07:00 -2°C° 0 mm 5 m/S 754 mmHg 83%
    08:00 -1°C° 0 mm 5 m/S 754 mmHg 81%
    09:00 -2°C° 0 mm 6 m/S 753 mmHg 78%
    10:00 -1°C° 0 mm 6 m/S 753 mmHg 75%
    11:00 0°C° 0 mm 7 m/S 752 mmHg 72%
    12:00 +2°C° 0 mm 7 m/S 751 mmHg 69%
    13:00 +3°C° 0 mm 7 m/S 750 mmHg 66%
    14:00 +2°C° 0,1 mm 7 m/S 749 mmHg 67%
    15:00 +2°C° 0,1 mm 7 m/S 748 mmHg 69%
    16:00 +2°C° 0,1 mm 7 m/S 746 mmHg 70%
    17:00 +2°C° 0,6 mm 7 m/S 745 mmHg 72%
    18:00 +1°C° 0,6 mm 8 m/S 744 mmHg 73%
    19:00 +1°C° 0,6 mm 8 m/S 743 mmHg 75%
    20:00 +2°C° 0,2 mm 7 m/S 742 mmHg 77%
    21:00 +2°C° 0,2 mm 7 m/S 741 mmHg 78%
    22:00 +2°C° 0,2 mm 6 m/S 740 mmHg 80%
    23:00 +3°C° 0,2 mm 6 m/S 739 mmHg 80%

    Morgen, 14 Dezember, Donnerstag

    Zeit Temperatur Niederschläge Wind Luftdruck Luftfeuchtigkeit
    00:00 +3°C° 0,2 mm 6 m/S 738 mmHg 81%
    01:00 +4°C° 0,2 mm 6 m/S 736 mmHg 81%
    02:00 +3°C° 0,7 mm 6 m/S 736 mmHg 80%
    03:00 +3°C° 0,7 mm 6 m/S 736 mmHg 80%
    04:00 +3°C° 0,7 mm 6 m/S 736 mmHg 79%
    05:00 +2°C° 0,1 mm 5 m/S 736 mmHg 79%
    06:00 +2°C° 0,1 mm 5 m/S 737 mmHg 79%
    07:00 +1°C° 0,1 mm 4 m/S 737 mmHg 80%
    08:00 +1°C° 0,7 mm 6 m/S 737 mmHg 80%
    09:00 0°C° 0,7 mm 8 m/S 738 mmHg 80%
    10:00 0°C° 0,7 mm 9 m/S 738 mmHg 81%
    11:00 0°C° 0,2 mm 9 m/S 739 mmHg 77%
    12:00 0°C° 0,2 mm 9 m/S 740 mmHg 74%
    13:00 +1°C° 0,2 mm 9 m/S 741 mmHg 70%
    14:00 0°C° 0 mm 8 m/S 741 mmHg 72%
    15:00 0°C° 0 mm 7 m/S 741 mmHg 73%
    16:00 +1°C° 0 mm 6 m/S 741 mmHg 74%
    17:00 +1°C° 0 mm 6 m/S 741 mmHg 77%
    18:00 +1°C° 0 mm 6 m/S 740 mmHg 79%
    19:00 -1°C° 0 mm 6 m/S 740 mmHg 82%
    20:00 0°C° 0 mm 5 m/S 740 mmHg 84%
    21:00 0°C° 0 mm 4 m/S 739 mmHg 86%
    22:00 0°C° 0 mm 4 m/S 739 mmHg 88%
    23:00 +1°C° 0 mm 3 m/S 739 mmHg 89%

    übermorgen, 15 Dezember, Freitag

    Zeit Temperatur Niederschläge Wind Luftdruck Luftfeuchtigkeit
    00:00 0°C° 0 mm 3 m/S 739 mmHg 90%
    01:00 0°C° 0 mm 3 m/S 738 mmHg 90%
    02:00 0°C° 0 mm 3 m/S 738 mmHg 90%
    03:00 +1°C° 0 mm 3 m/S 738 mmHg 90%
    04:00 +1°C° 0 mm 3 m/S 738 mmHg 90%
    05:00 0°C° 0 mm 3 m/S 739 mmHg 90%
    06:00 -1°C° 0 mm 4 m/S 739 mmHg 89%
    07:00 -1°C° 0 mm 4 m/S 740 mmHg 89%
    08:00 -1°C° 0 mm 4 m/S 741 mmHg 87%
    09:00 -1°C° 0 mm 5 m/S 741 mmHg 85%
    10:00 -1°C° 0 mm 5 m/S 742 mmHg 84%
    11:00 0°C° 0 mm 5 m/S 742 mmHg 81%
    12:00 +1°C° 0 mm 5 m/S 743 mmHg 78%
    13:00 +1°C° 0 mm 5 m/S 743 mmHg 75%
    14:00 +1°C° 0 mm 4 m/S 743 mmHg 79%
    15:00 +1°C° 0 mm 3 m/S 743 mmHg 84%
    16:00 0°C° 0 mm 3 m/S 743 mmHg 88%
    17:00 0°C° 0 mm 3 m/S 743 mmHg 89%
    18:00 0°C° 0 mm 3 m/S 743 mmHg 90%
    19:00 0°C° 0 mm 3 m/S 744 mmHg 91%
    20:00 0°C° 0 mm 3 m/S 744 mmHg 91%
    21:00 0°C° 0 mm 3 m/S 744 mmHg 91%
    22:00 0°C° 0 mm 3 m/S 744 mmHg 92%
    23:00 0°C° 0 mm 3 m/S 744 mmHg 92%

    16 Dezember, Samstag

    Zeit Temperatur Niederschläge Wind Luftdruck Luftfeuchtigkeit
    00:00 0°C° 0 mm 3 m/S 744 mmHg 93%
    01:00 +1°C° 0 mm 2 m/S 744 mmHg 94%
    02:00 0°C° 0 mm 3 m/S 744 mmHg 93%
    03:00 0°C° 0 mm 3 m/S 744 mmHg 93%
    04:00 -1°C° 0 mm 3 m/S 745 mmHg 93%
    05:00 0°C° 0,1 mm 3 m/S 745 mmHg 92%
    06:00 0°C° 0,1 mm 3 m/S 745 mmHg 92%
    07:00 0°C° 0,1 mm 3 m/S 745 mmHg 91%
    08:00 -1°C° 0,1 mm 4 m/S 746 mmHg 90%
    09:00 0°C° 0,1 mm 4 m/S 746 mmHg 88%
    10:00 0°C° 0,1 mm 4 m/S 746 mmHg 87%
    11:00 0°C° 0 mm 5 m/S 747 mmHg 84%
    12:00 +1°C° 0 mm 5 m/S 747 mmHg 82%
    13:00 +1°C° 0 mm 5 m/S 747 mmHg 80%
    14:00 +1°C° 0,2 mm 5 m/S 748 mmHg 81%
    15:00 +1°C° 0,2 mm 5 m/S 748 mmHg 83%
    16:00 +1°C° 0,2 mm 5 m/S 748 mmHg 85%
    17:00 +1°C° 0 mm 5 m/S 749 mmHg 85%
    18:00 0°C° 0 mm 5 m/S 750 mmHg 86%
    19:00 0°C° 0 mm 5 m/S 751 mmHg 87%
    20:00 0°C° 0,1 mm 5 m/S 752 mmHg 87%
    21:00 -1°C° 0,1 mm 5 m/S 752 mmHg 88%
    22:00 -1°C° 0,1 mm 5 m/S 753 mmHg 88%
    23:00 -1°C° 0 mm 4 m/S 754 mmHg 89%

    17 Dezember, Sonntag

    Zeit Temperatur Niederschläge Wind Luftdruck Luftfeuchtigkeit
    00:00 -2°C° 0 mm 4 m/S 755 mmHg 90%
    01:00 -2°C° 0 mm 4 m/S 756 mmHg 90%
    02:00 -2°C° 0 mm 3 m/S 756 mmHg 91%
    03:00 -2°C° 0 mm 3 m/S 757 mmHg 92%
    04:00 -2°C° 0 mm 3 m/S 757 mmHg 92%
    05:00 -2°C° 0 mm 3 m/S 758 mmHg 93%
    06:00 -2°C° 0 mm 3 m/S 758 mmHg 93%
    07:00 -2°C° 0 mm 2 m/S 759 mmHg 93%
    08:00 -1°C° 0 mm 3 m/S 760 mmHg 92%
    09:00 -1°C° 0 mm 3 m/S 760 mmHg 91%
    10:00 0°C° 0 mm 3 m/S 761 mmHg 90%
    11:00 0°C° 0 mm 3 m/S 761 mmHg 89%
    12:00 +1°C° 0 mm 3 m/S 761 mmHg 88%
    13:00 +2°C° 0 mm 3 m/S 761 mmHg 87%
    14:00 +1°C° 0 mm 3 m/S 762 mmHg 88%
    15:00 +1°C° 0 mm 3 m/S 762 mmHg 90%
    16:00 0°C° 0 mm 3 m/S 762 mmHg 91%
    17:00 0°C° 0 mm 3 m/S 763 mmHg 92%
    18:00 0°C° 0 mm 3 m/S 763 mmHg 92%
    19:00 -1°C° 0 mm 3 m/S 764 mmHg 92%
    20:00 -1°C° 0 mm 3 m/S 764 mmHg 92%
    21:00 -1°C° 0 mm 3 m/S 764 mmHg 92%
    22:00 -1°C° 0 mm 3 m/S 764 mmHg 92%
    23:00 -1°C° 0 mm 3 m/S 764 mmHg 92%

    18 Dezember, Montag

    Zeit Temperatur Niederschläge Wind Luftdruck Luftfeuchtigkeit
    00:00 -1°C° 0 mm 3 m/S 764 mmHg 93%
    01:00 -1°C° 0 mm 3 m/S 764 mmHg 93%
    02:00 -1°C° 0 mm 3 m/S 764 mmHg 92%
    03:00 -1°C° 0 mm 3 m/S 763 mmHg 92%
    04:00 -1°C° 0 mm 3 m/S 763 mmHg 91%
    05:00 -1°C° 0 mm 3 m/S 763 mmHg 90%
    06:00 -1°C° 0 mm 3 m/S 762 mmHg 88%
    07:00 -1°C° 0 mm 4 m/S 762 mmHg 87%
    08:00 -1°C° 0 mm 4 m/S 761 mmHg 86%
    09:00 -1°C° 0 mm 4 m/S 761 mmHg 85%
    10:00 0°C° 0 mm 4 m/S 760 mmHg 84%
    11:00 0°C° 0,1 mm 4 m/S 760 mmHg 84%
    12:00 +1°C° 0,1 mm 4 m/S 759 mmHg 84%
    13:00 +1°C° 0,1 mm 4 m/S 759 mmHg 84%
    14:00 +2°C° 0 mm 3 m/S 758 mmHg 87%
    15:00 +1°C° 0 mm 3 m/S 758 mmHg 89%
    16:00 +2°C° 0 mm 2 m/S 758 mmHg 92%
    17:00 +1°C° 0 mm 2 m/S 758 mmHg 92%
    18:00 +1°C° 0 mm 2 m/S 758 mmHg 93%
    19:00 +1°C° 0 mm 1 m/S 759 mmHg 93%
    20:00 +1°C° 0 mm 1 m/S 759 mmHg 93%
    21:00 +1°C° 0 mm 1 m/S 760 mmHg 93%
    22:00 +1°C° 0 mm 1 m/S 761 mmHg 94%
    23:00 +1°C° 0 mm 1 m/S 761 mmHg 94%
    Mehr zeigen